Hourly Data Report for October 01, 2017

All times are specified in Local Standard Time (LST). Add 1 hour to adjust for Daylight Saving Time where and when it is observed.

BORDEN AWOS
ONTARIO

44°16'20.000" N
79°54'42.000" W
222.50 m
611B002
71534
YBN

Download Data

Hourly Data (October 2017)
Hourly Data Report for October 1, 2017
Temp Definition
°C
Dew Point Temp Definition
°C
Rel Hum Definition
%
Wind Dir Definition
10's deg

Wind Spd Definition
km/h
Visibility Definition
km
Stn Press Definition
kPa
Hmdx Definition


Wind Chill Definition


Weather Definition


TIME
00:00 -1.2 -1.2 100   0 14.5 100.28     LegendNANA
01:00 -1.0 -1.7 95   0 14.5 100.28     LegendNANA
02:00 -0.6 -1.1 96 21 4 14.5 100.26   -2 LegendNANA
03:00 -1.8 -2.5 95   0 9.7 100.25     LegendNANA
04:00 -2.2 -2.2 100   0 14.5 100.25     LegendNANA
05:00 -2.5 -2.8 98   0 4.8 100.24     LegendNANA
06:00 -2.5 -2.7 98   0 14.5 100.26     LegendNANA
07:00 -1.1 -1.4 98   0 14.5 100.31     LegendNANA
08:00 5.4 LegendMM 95 15 4 14.5 100.33     LegendNANA
09:00 10.4 6.4 76 12 4 14.5 100.30     LegendNANA
10:00 13.9 6.0 59 13 6 14.5 100.27     LegendNANA
11:00 16.0 5.4 49 14 9 14.5 100.21     LegendNANA
12:00 16.6 4.6 45 18 4 14.5 100.16     LegendNANA
13:00 17.5 4.9 43 19 9 14.5 100.08     LegendNANA
14:00 18.5 5.3 42 18 15 14.5 100.01     LegendNANA
15:00 18.7 5.4 42 20 9 14.5 99.93     LegendNANA
16:00 19.1 5.3 40 18 4 14.5 99.90     LegendNANA
17:00 18.4 4.9 41   0 14.5 99.87     LegendNANA
18:00 13.9 7.0 63 33 7 14.5 99.88     LegendNANA
19:00 9.4 6.3 81 24 4 14.5 99.91     LegendNANA
20:00 7.0 5.7 91   0 14.5 99.96     LegendNANA
21:00 4.9 4.7 99   0 14.5 99.97     LegendNANA
22:00 3.8 3.1 95   0 2.3 99.99     LegendNANA
23:00 2.6 2.3 98   0 9.7 100.02     LegendNANA

Notes on Data Quality.

Legend

  • E = Estimated
  • M = Missing
  • NA = Not Available
  • ‡ = Partner data that is not subject to review by the National Climate Archives
Date modified: